| time (UTC) | temp C | wind direction | speed KPH | gust KPH | rain 1hr cm | rain 24hr cm | rain mn cm | humidity % | barometer mb |
| 20260906205438 | 26 | 155 | 11.3 | 11.3 | 0.00 | 0.00 | 0.00 | 80 | 1016.2 |
| 20260906204934 | 26 | 159 | 3.2 | 9.7 | 0.00 | 0.00 | 0.00 | 80 | 1016.1 |
| 20260906204433 | 26 | 158 | 6.4 | 14.5 | 0.00 | 0.00 | 0.00 | 79 | 1016.2 |
| 20260906203932 | 26 | 158 | 6.4 | 6.4 | 0.00 | 0.00 | 0.00 | 77 | 1016.2 |
| 20260906203428 | 26 | 135 | 4.8 | 16.1 | 0.00 | 0.00 | 0.00 | 77 | 1016.1 |
| 20260906202925 | 26 | 158 | 6.4 | 17.7 | 0.00 | 0.00 | 0.00 | 77 | 1016.4 |
| 20260906202424 | 26 | 170 | 4.8 | 12.9 | 0.00 | 0.00 | 0.00 | 75 | 1016.3 |
| 20260906201920 | 26 | 150 | 4.8 | 14.5 | 0.00 | 0.00 | 0.00 | 75 | 1016.5 |
| 20260906201414 | 26 | 156 | 11.3 | 16.1 | 0.00 | 0.00 | 0.00 | 73 | 1016.4 |
| 20260906200909 | 27 | 165 | 6.4 | 14.5 | 0.00 | 0.00 | 0.00 | 72 | 1016.5 |
| 20260906200406 | 27 | 154 | 8.0 | 16.1 | 0.00 | 0.00 | 0.00 | 72 | 1016.4 |
| 20260906195905 | 27 | 169 | 4.8 | 17.7 | 0.00 | 0.00 | 0.00 | 72 | 1016.0 |
| 20260906195402 | 27 | 156 | 6.4 | 24.1 | 0.00 | 0.00 | 0.00 | 72 | 1016.1 |
| 20260906194857 | 27 | 148 | 6.4 | 12.9 | 0.00 | 0.00 | 0.00 | 71 | 1015.8 |
| 20260906194353 | 27 | 129 | 6.4 | 14.5 | 0.00 | 0.00 | 0.00 | 71 | 1016.0 |
| 20260906193848 | 28 | 176 | 8.0 | 11.3 | 0.00 | 0.00 | 0.00 | 68 | 1016.0 |
| 20260906193343 | 28 | 156 | 6.4 | 11.3 | 0.00 | 0.00 | 0.00 | 68 | 1016.0 |
| 20260906192839 | 28 | 130 | 4.8 | 11.3 | 0.00 | 0.00 | 0.00 | 69 | 1016.0 |
| 20260906192333 | 28 | 109 | 12.9 | 16.1 | 0.00 | 0.00 | 0.00 | 68 | 1015.8 |
| 20260906191833 | 28 | 130 | 9.7 | 9.7 | 0.00 | 0.00 | 0.00 | 70 | 1016.1 |
| 20260906191333 | 28 | 125 | 9.7 | 17.7 | 0.00 | 0.00 | 0.00 | 68 | 1015.9 |
| 20260906190827 | 28 | 147 | 3.2 | 14.5 | 0.00 | 0.00 | 0.00 | 69 | 1015.9 |
| 20260906190327 | 28 | 139 | 4.8 | 14.5 | 0.00 | 0.00 | 0.00 | 69 | 1016.1 |
| 20260906185827 | 28 | 153 | 9.7 | 9.7 | 0.00 | 0.00 | 0.00 | 69 | 1016.2 |
| 20260906185326 | 28 | 145 | 11.3 | 17.7 | 0.00 | 0.00 | 0.00 | 70 | 1016.0 |
| 20260906184820 | 28 | 147 | 3.2 | 11.3 | 0.00 | 0.00 | 0.00 | 70 | 1016.1 |
| 20260906184315 | 28 | 155 | 8.0 | 11.3 | 0.00 | 0.00 | 0.00 | 68 | 1016.2 |
| 20260906183811 | 28 | 151 | 4.8 | 9.7 | 0.00 | 0.00 | 0.00 | 70 | 1016.0 |
| 20260906183308 | 27 | 183 | 4.8 | 9.7 | 0.00 | 0.00 | 0.00 | 70 | 1016.2 |
| 20260906182807 | 27 | 180 | 6.4 | 19.3 | 0.00 | 0.00 | 0.00 | 71 | 1016.1 |
| 20260906182306 | 27 | 141 | 4.8 | 12.9 | 0.00 | 0.00 | 0.00 | 72 | 1016.6 |
| 20260906181758 | 27 | 135 | 6.4 | 17.7 | 0.00 | 0.00 | 0.00 | 72 | 1016.4 |
| 20260906181254 | 27 | 153 | 14.5 | 14.5 | 0.00 | 0.00 | 0.00 | 71 | 1016.3 |
| 20260906180749 | 27 | 157 | 0.0 | 17.7 | 0.00 | 0.00 | 0.00 | 73 | 1016.4 |
| 20260906180244 | 27 | 135 | 3.2 | 12.9 | 0.00 | 0.00 | 0.00 | 73 | 1016.0 |
| 20260906175741 | 27 | 190 | 8.0 | 11.3 | 0.00 | 0.00 | 0.00 | 72 | 1016.4 |
| 20260906175237 | 28 | 129 | 3.2 | 4.8 | 0.00 | 0.00 | 0.00 | 73 | 1016.1 |
| 20260906174735 | 27 | 129 | 3.2 | 16.1 | 0.00 | 0.00 | 0.00 | 73 | 1016.1 |
| 20260906174230 | 27 | 154 | 4.8 | 6.4 | 0.00 | 0.00 | 0.00 | 74 | 1016.1 |
| 20260906173725 | 28 | 161 | 1.6 | 9.7 | 0.00 | 0.00 | 0.00 | 73 | 1016.2 |
| 20260906173221 | 27 | 164 | 6.4 | 12.9 | 0.00 | 0.00 | 0.00 | 75 | 1016.3 |
| 20260906172720 | 27 | 155 | 6.4 | 9.7 | 0.00 | 0.00 | 0.00 | 74 | 1016.4 |
| 20260906172215 | 27 | 201 | 3.2 | 12.9 | 0.00 | 0.00 | 0.00 | 74 | 1016.5 |
| 20260906171710 | 27 | 156 | 9.7 | 16.1 | 0.00 | 0.00 | 0.00 | 72 | 1016.3 |
| 20260906171206 | 27 | 149 | 12.9 | 12.9 | 0.00 | 0.00 | 0.00 | 74 | 1016.5 |
| 20260906170702 | 27 | 119 | 4.8 | 9.7 | 0.00 | 0.00 | 0.00 | 76 | 1016.5 |
| 20260906170202 | 26 | 154 | 8.0 | 14.5 | 0.00 | 0.00 | 0.00 | 76 | 1016.7 |
| 20260906165658 | 27 | 156 | 4.8 | 9.7 | 0.00 | 0.00 | 0.00 | 76 | 1016.8 |
| 20260906165158 | 27 | 108 | 4.8 | 8.0 | 0.00 | 0.00 | 0.00 | 75 | 1016.7 |
| 20260906164656 | 26 | 147 | 1.6 | 9.7 | 0.00 | 0.00 | 0.00 | 77 | 1017.0 |
| 20260906164152 | 26 | 168 | 4.8 | 9.7 | 0.00 | 0.00 | 0.00 | 79 | 1016.8 |
| 20260906163648 | 26 | 116 | 1.6 | 9.7 | 0.00 | 0.00 | 0.00 | 78 | 1016.9 |
| 20260906163144 | 26 | 148 | 4.8 | 17.7 | 0.00 | 0.00 | 0.00 | 79 | 1016.9 |
| 20260906162641 | 26 | 157 | 0.0 | 9.7 | 0.00 | 0.00 | 0.00 | 80 | 1017.0 |
| 20260906162140 | 25 | 126 | 6.4 | 9.7 | 0.00 | 0.00 | 0.00 | 80 | 1017.0 |
| 20260906161635 | 25 | 161 | 6.4 | 16.1 | 0.00 | 0.00 | 0.00 | 82 | 1017.1 |
| 20260906161134 | 25 | 145 | 4.8 | 9.7 | 0.00 | 0.00 | 0.00 | 83 | 1017.1 |
| 20260906160633 | 25 | 152 | 11.3 | 16.1 | 0.00 | 0.00 | 0.00 | 82 | 1017.1 |
| 20260906160133 | 25 | 164 | 6.4 | 8.0 | 0.00 | 0.00 | 0.00 | 82 | 1017.2 |
| 20260906155630 | 25 | 117 | 6.4 | 9.7 | 0.00 | 0.00 | 0.00 | 84 | 1017.2 |
| 20260906155126 | 24 | 160 | 3.2 | 11.3 | 0.00 | 0.00 | 0.00 | 83 | 1017.4 |
| 20260906154621 | 25 | 146 | 11.3 | 11.3 | 0.00 | 0.00 | 0.00 | 83 | 1017.5 |
| 20260906154120 | 23 | 119 | 3.2 | 6.4 | 0.00 | 0.00 | 0.00 | 85 | 1017.7 |
| 20260906153619 | 23 | 109 | 3.2 | 8.0 | 0.00 | 0.00 | 0.00 | 85 | 1017.5 |
| 20260906153115 | 24 | 118 | 0.0 | 9.7 | 0.00 | 0.00 | 0.00 | 85 | 1017.6 |
| 20260906152615 | 23 | 139 | 3.2 | 8.0 | 0.00 | 0.00 | 0.00 | 84 | 1017.6 |
| 20260906152109 | 23 | 151 | 11.3 | 14.5 | 0.00 | 0.00 | 0.00 | 85 | 1017.7 |
| 20260906151604 | 23 | 120 | 1.6 | 8.0 | 0.00 | 0.00 | 0.00 | 87 | 1017.5 |
| 20260906151100 | 22 | 150 | 6.4 | 14.5 | 0.00 | 0.00 | 0.00 | 88 | 1017.6 |
| 20260906150555 | 22 | 154 | 6.4 | 14.5 | 0.00 | 0.00 | 0.00 | 88 | 1017.5 |
| 20260906150050 | 23 | 137 | 6.4 | 16.1 | 0.00 | 0.00 | 0.00 | 88 | 1017.3 |
| 20260906145549 | 23 | 134 | 3.2 | 6.4 | 0.00 | 0.00 | 0.00 | 89 | 1017.2 |
| 20260906145044 | 22 | 133 | 3.2 | 17.7 | 0.00 | 0.00 | 0.00 | 91 | 1017.6 |
| 20260906144538 | 22 | 157 | 0.0 | 9.7 | 0.00 | 0.00 | 0.00 | 91 | 1017.6 |
| 20260906144033 | 22 | 153 | 3.2 | 9.7 | 0.00 | 0.00 | 0.00 | 91 | 1017.7 |
| 20260906143528 | 22 | 123 | 4.8 | 8.0 | 0.00 | 0.00 | 0.00 | 92 | 1017.7 |
| 20260906143026 | 21 | 156 | 0.0 | 6.4 | 0.00 | 0.00 | 0.00 | 92 | 1017.7 |
| 20260906142524 | 21 | 125 | 4.8 | 6.4 | 0.00 | 0.00 | 0.00 | 92 | 1017.7 |
| 20260906142021 | 21 | 137 | 3.2 | 6.4 | 0.00 | 0.00 | 0.00 | 92 | 1017.8 |
| 20260906141519 | 21 | 133 | 3.2 | 4.8 | 0.00 | 0.00 | 0.00 | 93 | 1017.9 |
| 20260906141015 | 21 | 118 | 3.2 | 6.4 | 0.00 | 0.00 | 0.00 | 94 | 1017.9 |
| 20260906140508 | 21 | 92 | 1.6 | 4.8 | 0.00 | 0.00 | 0.00 | 94 | 1018.0 |
| 20260906140008 | 21 | 123 | 3.2 | 6.4 | 0.00 | 0.00 | 0.00 | 94 | 1018.1 |
| 20260906135505 | 21 | 172 | 0.0 | 4.8 | 0.00 | 0.00 | 0.00 | 94 | 1018.2 |
| 20260906135001 | 20 | 91 | 1.6 | 3.2 | 0.00 | 0.00 | 0.00 | 95 | 1018.0 |
| 20260906134456 | 20 | 118 | 3.2 | 4.8 | 0.00 | 0.00 | 0.00 | 95 | 1018.1 |
| 20260906133951 | 20 | 111 | 4.8 | 6.4 | 0.00 | 0.00 | 0.00 | 95 | 1017.8 |
| 20260906133447 | 20 | 99 | 3.2 | 9.7 | 0.00 | 0.00 | 0.00 | 96 | 1017.7 |
| 20260906132942 | 20 | 127 | 1.6 | 11.3 | 0.00 | 0.00 | 0.00 | 96 | 1017.7 |
| 20260906132437 | 20 | 131 | 3.2 | 4.8 | 0.00 | 0.00 | 0.00 | 95 | 1017.5 |
| 20260906131933 | 20 | 114 | 3.2 | 8.0 | 0.00 | 0.00 | 0.00 | 95 | 1017.6 |
| 20260906131428 | 20 | 145 | 4.8 | 8.0 | 0.00 | 0.00 | 0.00 | 97 | 1017.6 |
| 20260906130924 | 19 | 141 | 3.2 | 6.4 | 0.00 | 0.00 | 0.00 | 98 | 1017.6 |
| 20260906130423 | 18 | 124 | 3.2 | 6.4 | 0.00 | 0.00 | 0.00 | 98 | 1017.4 |
| 20260906125922 | 18 | 144 | 3.2 | 4.8 | 0.00 | 0.00 | 0.00 | 99 | 1017.2 |
| 20260906125420 | 18 | 125 | 4.8 | 6.4 | 0.00 | 0.00 | 0.00 | 99 | 1017.1 |
| 20260906124914 | 18 | 121 | 3.2 | 8.0 | 0.00 | 0.00 | 0.00 | 99 | 1017.4 |
| 20260906124410 | 17 | 98 | 4.8 | 6.4 | 0.00 | 0.00 | 0.00 | 99 | 1017.3 |
| 20260906123910 | 17 | 127 | 0.0 | 4.8 | 0.00 | 0.00 | 0.00 | 99 | 1017.3 |
| 20260906123404 | 17 | 116 | 1.6 | 3.2 | 0.00 | 0.00 | 0.00 | 99 | 1017.4 |
| 20260906122904 | 17 | 104 | 4.8 | 6.4 | 0.00 | 0.00 | 0.00 | 99 | 1017.2 |
| 20260906122358 | 17 | 140 | 4.8 | 6.4 | 0.00 | 0.00 | 0.00 | 99 | 1017.2 |
| 20260906121855 | 17 | 116 | 3.2 | 4.8 | 0.00 | 0.00 | 0.00 | 99 | 1017.1 |
| 20260906121351 | 17 | 131 | 3.2 | 3.2 | 0.00 | 0.00 | 0.00 | 99 | 1017.1 |
| 20260906120847 | 17 | 125 | 3.2 | 4.8 | 0.00 | 0.00 | 0.00 | 99 | 1017.1 |
| 20260906120343 | 17 | 89 | 0.0 | 4.8 | 0.00 | 0.00 | 0.00 | 99 | 1016.9 |
| 20260906115839 | 17 | 89 | 1.6 | 4.8 | 0.00 | 0.00 | 0.00 | 99 | 1016.8 |
| 20260906115334 | 17 | 127 | 1.6 | 4.8 | 0.00 | 0.00 | 0.00 | 99 | 1016.7 |
| 20260906114833 | 17 | 112 | 1.6 | 4.8 | 0.00 | 0.00 | 0.00 | 99 | 1016.6 |
| 20260906114328 | 17 | 141 | 6.4 | 9.7 | 0.00 | 0.00 | 0.00 | 99 | 1016.6 |
| 20260906113823 | 17 | 176 | 6.4 | 8.0 | 0.00 | 0.00 | 0.00 | 99 | 1016.6 |
| 20260906113323 | 17 | 146 | 6.4 | 8.0 | 0.00 | 0.00 | 0.00 | 99 | 1016.6 |
| 20260906112818 | 17 | 127 | 3.2 | 6.4 | 0.00 | 0.00 | 0.00 | 99 | 1016.6 |
| 20260906112314 | 17 | 114 | 4.8 | 4.8 | 0.00 | 0.00 | 0.00 | 99 | 1016.8 |
| 20260906111814 | 17 | 110 | 3.2 | 3.2 | 0.00 | 0.00 | 0.00 | 99 | 1016.8 |
| 20260906111313 | 17 | 142 | 3.2 | 4.8 | 0.00 | 0.00 | 0.00 | 99 | 1016.8 |
| 20260906110809 | 17 | 119 | 4.8 | 6.4 | 0.00 | 0.00 | 0.00 | 99 | 1016.8 |
| 20260906110305 | 17 | 155 | 3.2 | 4.8 | 0.00 | 0.00 | 0.00 | 99 | 1016.9 |
| 20260906105803 | 17 | 158 | 1.6 | 3.2 | 0.00 | 0.00 | 0.00 | 99 | 1016.8 |
| 20260906105259 | 17 | 101 | 3.2 | 4.8 | 0.00 | 0.00 | 0.00 | 99 | 1017.0 |
| 20260906104754 | 17 | 88 | 3.2 | 3.2 | 0.00 | 0.00 | 0.00 | 99 | 1016.8 |
| 20260906104253 | 17 | 102 | 3.2 | 4.8 | 0.00 | 0.00 | 0.00 | 99 | 1017.1 |
| 20260906103751 | 17 | 104 | 0.0 | 3.2 | 0.00 | 0.00 | 0.00 | 99 | 1017.2 |
| 20260906103245 | 17 | 103 | 0.0 | 3.2 | 0.00 | 0.00 | 0.00 | 99 | 1017.2 |
| 20260906102742 | 17 | 113 | 3.2 | 3.2 | 0.00 | 0.00 | 0.00 | 99 | 1017.3 |
| 20260906102240 | 17 | 59 | 3.2 | 3.2 | 0.00 | 0.00 | 0.00 | 99 | 1017.0 |
| 20260906101736 | 17 | 118 | 3.2 | 3.2 | 0.00 | 0.00 | 0.00 | 99 | 1016.9 |
| 20260906101230 | 17 | 130 | 0.0 | 3.2 | 0.00 | 0.00 | 0.00 | 99 | 1017.1 |
| 20260906100726 | 17 | 87 | 1.6 | 3.2 | 0.00 | 0.00 | 0.00 | 99 | 1017.1 |
| 20260906100220 | 17 | 135 | 0.0 | 3.2 | 0.00 | 0.00 | 0.00 | 99 | 1017.1 |
| 20260906095720 | 17 | 89 | 0.0 | 3.2 | 0.00 | 0.00 | 0.00 | 99 | 1017.1 |
| 20260906095216 | 17 | 116 | 0.0 | 1.6 | 0.00 | 0.00 | 0.00 | 99 | 1016.8 |
| 20260906094714 | 17 | 127 | 3.2 | 3.2 | 0.00 | 0.00 | 0.00 | 99 | 1016.8 |
| 20260906094210 | 17 | 114 | 3.2 | 3.2 | 0.00 | 0.00 | 0.00 | 99 | 1016.4 |
| 20260906093706 | 17 | 91 | 1.6 | 3.2 | 0.00 | 0.00 | 0.00 | 99 | 1016.5 |
| 20260906093201 | 17 | 141 | 0.0 | 1.6 | 0.00 | 0.00 | 0.00 | 99 | 1016.5 |
| 20260906092657 | 17 | 89 | 0.0 | 1.6 | 0.00 | 0.00 | 0.00 | 99 | 1016.3 |
| 20260906092155 | 17 | 89 | 0.0 | 3.2 | 0.00 | 0.00 | 0.00 | 99 | 1016.2 |
| 20260906091653 | 17 | 96 | 3.2 | 3.2 | 0.00 | 0.00 | 0.00 | 99 | 1016.1 |
| 20260906091149 | 17 | 92 | 3.2 | 4.8 | 0.00 | 0.00 | 0.00 | 99 | 1016.1 |
| 20260906090644 | 17 | 114 | 1.6 | 3.2 | 0.00 | 0.00 | 0.00 | 99 | 1016.1 |
| 20260906090143 | 17 | 106 | 3.2 | 3.2 | 0.00 | 0.00 | 0.00 | 99 | 1016.2 |
| 20260906085642 | 17 | 122 | 3.2 | 3.2 | 0.00 | 0.00 | 0.00 | 99 | 1016.0 |
| 20260906085137 | 17 | 125 | 3.2 | 4.8 | 0.00 | 0.00 | 0.00 | 99 | 1016.0 |
| 20260906084632 | 18 | 113 | 3.2 | 6.4 | 0.00 | 0.00 | 0.00 | 99 | 1015.8 |
| 20260906084131 | 18 | 105 | 6.4 | 6.4 | 0.00 | 0.00 | 0.00 | 99 | 1016.0 |
| 20260906083626 | 18 | 102 | 3.2 | 4.8 | 0.00 | 0.00 | 0.00 | 99 | 1016.0 |
| 20260906083120 | 18 | 104 | 3.2 | 4.8 | 0.00 | 0.00 | 0.00 | 99 | 1016.1 |
| 20260906082616 | 18 | 125 | 3.2 | 4.8 | 0.00 | 0.00 | 0.00 | 99 | 1016.1 |
| 20260906082112 | 18 | 106 | 3.2 | 6.4 | 0.00 | 0.00 | 0.00 | 99 | 1016.2 |
| 20260906081608 | 18 | 114 | 4.8 | 6.4 | 0.00 | 0.00 | 0.00 | 99 | 1016.2 |
| 20260906081102 | 18 | 107 | 3.2 | 4.8 | 0.00 | 0.00 | 0.00 | 98 | 1016.1 |
| 20260906080559 | 18 | 111 | 4.8 | 6.4 | 0.00 | 0.00 | 0.00 | 98 | 1016.2 |
| 20260906080055 | 18 | 116 | 4.8 | 4.8 | 0.00 | 0.00 | 0.00 | 98 | 1016.2 |
| 20260906075555 | 18 | 103 | 3.2 | 6.4 | 0.00 | 0.00 | 0.00 | 97 | 1016.3 |
| 20260906075049 | 18 | 107 | 1.6 | 6.4 | 0.00 | 0.00 | 0.00 | 97 | 1016.2 |
| 20260906074544 | 18 | 97 | 3.2 | 3.2 | 0.00 | 0.00 | 0.00 | 97 | 1016.4 |
| 20260906074038 | 18 | 107 | 3.2 | 4.8 | 0.00 | 0.00 | 0.00 | 97 | 1016.2 |
| 20260906073532 | 18 | 117 | 6.4 | 6.4 | 0.00 | 0.00 | 0.00 | 97 | 1016.1 |
| 20260906073028 | 18 | 106 | 3.2 | 6.4 | 0.00 | 0.00 | 0.00 | 96 | 1016.2 |
| 20260906072523 | 19 | 98 | 3.2 | 6.4 | 0.00 | 0.00 | 0.00 | 96 | 1016.2 |
| 20260906072014 | 19 | 109 | 4.8 | 4.8 | 0.00 | 0.00 | 0.00 | 96 | 1016.5 |
| 20260906071510 | 19 | 108 | 1.6 | 3.2 | 0.00 | 0.00 | 0.00 | 96 | 1016.6 |
| 20260906071005 | 19 | 105 | 1.6 | 3.2 | 0.00 | 0.00 | 0.00 | 96 | 1016.6 |
| 20260906070500 | 19 | 133 | 1.6 | 6.4 | 0.00 | 0.00 | 0.00 | 96 | 1016.7 |
| 20260906065955 | 19 | 115 | 3.2 | 3.2 | 0.00 | 0.00 | 0.00 | 95 | 1016.7 |
| 20260906065450 | 19 | 117 | 1.6 | 3.2 | 0.00 | 0.00 | 0.00 | 95 | 1016.8 |
| 20260906064945 | 19 | 112 | 3.2 | 4.8 | 0.00 | 0.00 | 0.00 | 95 | 1016.8 |
| 20260906064442 | 19 | 98 | 1.6 | 3.2 | 0.00 | 0.00 | 0.00 | 96 | 1017.0 |
| 20260906063936 | 19 | 135 | 0.0 | 1.6 | 0.00 | 0.00 | 0.00 | 96 | 1017.0 |
| 20260906063432 | 19 | 129 | 0.0 | 1.6 | 0.00 | 0.00 | 0.00 | 95 | 1016.8 |
| 20260906062932 | 19 | 134 | 1.6 | 3.2 | 0.00 | 0.00 | 0.00 | 95 | 1016.9 |
| 20260906062427 | 19 | 94 | 0.0 | 3.2 | 0.00 | 0.00 | 0.00 | 95 | 1017.0 |
| 20260906061922 | 19 | 101 | 1.6 | 1.6 | 0.00 | 0.00 | 0.00 | 95 | 1016.8 |
| 20260906061418 | 19 | 63 | 0.0 | 1.6 | 0.00 | 0.00 | 0.00 | 95 | 1016.8 |
| 20260906060913 | 19 | 111 | 1.6 | 3.2 | 0.00 | 0.00 | 0.00 | 95 | 1016.8 |
| 20260906060410 | 19 | 81 | 1.6 | 3.2 | 0.00 | 0.00 | 0.00 | 95 | 1016.8 |
| 20260906055906 | 19 | 101 | 3.2 | 3.2 | 0.00 | 0.00 | 0.00 | 95 | 1016.8 |
| 20260906055401 | 19 | 104 | 1.6 | 4.8 | 0.00 | 0.00 | 0.00 | 95 | 1016.8 |
| 20260906054856 | 19 | 94 | 1.6 | 3.2 | 0.00 | 0.00 | 0.00 | 95 | 1016.9 |
| 20260906054351 | 19 | 100 | 1.6 | 1.6 | 0.00 | 0.00 | 0.00 | 95 | 1016.9 |
| 20260906053847 | 19 | 37 | 0.0 | 1.6 | 0.00 | 0.00 | 0.00 | 94 | 1016.9 |
| 20260906053343 | 20 | 129 | 1.6 | 3.2 | 0.00 | 0.00 | 0.00 | 94 | 1016.8 |
| 20260906052838 | 20 | 121 | 0.0 | 4.8 | 0.00 | 0.00 | 0.00 | 94 | 1016.8 |
| 20260906052335 | 20 | 146 | 3.2 | 4.8 | 0.00 | 0.00 | 0.00 | 93 | 1016.6 |
| 20260906051831 | 20 | 142 | 4.8 | 4.8 | 0.00 | 0.00 | 0.00 | 93 | 1016.9 |
| 20260906051331 | 20 | 125 | 3.2 | 4.8 | 0.00 | 0.00 | 0.00 | 93 | 1016.9 |
| 20260906050826 | 20 | 150 | 3.2 | 4.8 | 0.00 | 0.00 | 0.00 | 93 | 1016.9 |
| 20260906050322 | 20 | 130 | 0.0 | 6.4 | 0.00 | 0.00 | 0.00 | 93 | 1016.5 |
| 20260906045820 | 20 | 114 | 6.4 | 9.7 | 0.00 | 0.00 | 0.00 | 93 | 1016.5 |
| 20260906045315 | 20 | 107 | 4.8 | 9.7 | 0.00 | 0.00 | 0.00 | 93 | 1016.4 |
| 20260906044811 | 20 | 140 | 4.8 | 9.7 | 0.00 | 0.00 | 0.00 | 92 | 1016.5 |
| 20260906044311 | 20 | 110 | 4.8 | 8.0 | 0.00 | 0.00 | 0.00 | 92 | 1016.5 |
| 20260906043806 | 20 | 124 | 3.2 | 6.4 | 0.00 | 0.00 | 0.00 | 92 | 1016.5 |
| 20260906043303 | 20 | 113 | 3.2 | 6.4 | 0.00 | 0.00 | 0.00 | 91 | 1016.5 |
| 20260906042757 | 20 | 110 | 6.4 | 9.7 | 0.00 | 0.00 | 0.00 | 91 | 1016.5 |
| 20260906042256 | 20 | 115 | 3.2 | 6.4 | 0.00 | 0.00 | 0.00 | 91 | 1016.6 |
| 20260906041752 | 20 | 116 | 3.2 | 6.4 | 0.00 | 0.00 | 0.00 | 91 | 1016.7 |
| 20260906041247 | 20 | 121 | 4.8 | 9.7 | 0.00 | 0.00 | 0.00 | 90 | 1016.5 |
| 20260906040742 | 21 | 122 | 4.8 | 6.4 | 0.00 | 0.00 | 0.00 | 90 | 1016.5 |
| 20260906040237 | 21 | 122 | 3.2 | 9.7 | 0.00 | 0.00 | 0.00 | 90 | 1016.5 |
| 20260906035732 | 21 | 119 | 4.8 | 6.4 | 0.00 | 0.00 | 0.00 | 89 | 1016.6 |
| 20260906035223 | 21 | 121 | 6.4 | 9.7 | 0.00 | 0.00 | 0.00 | 89 | 1016.4 |
| 20260906034722 | 21 | 117 | 4.8 | 8.0 | 0.00 | 0.00 | 0.00 | 89 | 1016.4 |
| 20260906034217 | 21 | 116 | 6.4 | 8.0 | 0.00 | 0.00 | 0.00 | 89 | 1016.4 |
| 20260906033713 | 21 | 115 | 6.4 | 8.0 | 0.00 | 0.00 | 0.00 | 89 | 1016.6 |
| 20260906033207 | 21 | 121 | 3.2 | 6.4 | 0.00 | 0.00 | 0.00 | 89 | 1016.5 |
| 20260906032704 | 21 | 127 | 3.2 | 6.4 | 0.00 | 0.00 | 0.00 | 89 | 1016.5 |
| 20260906032204 | 21 | 93 | 3.2 | 4.8 | 0.00 | 0.00 | 0.00 | 89 | 1016.4 |
| 20260906031659 | 21 | 124 | 3.2 | 4.8 | 0.00 | 0.00 | 0.00 | 89 | 1016.5 |
| 20260906031154 | 21 | 119 | 3.2 | 4.8 | 0.00 | 0.00 | 0.00 | 88 | 1016.7 |
| 20260906030654 | 21 | 112 | 3.2 | 4.8 | 0.00 | 0.00 | 0.00 | 88 | 1016.6 |
| 20260906030149 | 21 | 117 | 3.2 | 6.4 | 0.00 | 0.00 | 0.00 | 88 | 1016.6 |
| 20260906025648 | 21 | 116 | 1.6 | 4.8 | 0.00 | 0.00 | 0.00 | 88 | 1016.7 |
| 20260906025148 | 21 | 117 | 3.2 | 4.8 | 0.00 | 0.00 | 0.00 | 88 | 1016.7 |
| 20260906024642 | 21 | 96 | 1.6 | 4.8 | 0.00 | 0.00 | 0.00 | 87 | 1016.9 |
| 20260906024136 | 21 | 106 | 3.2 | 6.4 | 0.00 | 0.00 | 0.00 | 87 | 1016.8 |
| 20260906023632 | 21 | 99 | 3.2 | 4.8 | 0.00 | 0.00 | 0.00 | 87 | 1016.6 |
| 20260906023132 | 21 | 125 | 4.8 | 6.4 | 0.00 | 0.00 | 0.00 | 87 | 1016.8 |
| 20260906022627 | 21 | 110 | 4.8 | 6.4 | 0.00 | 0.00 | 0.00 | 87 | 1016.8 |
| 20260906022123 | 21 | 145 | 0.0 | 3.2 | 0.00 | 0.00 | 0.00 | 87 | 1017.1 |
| 20260906021619 | 21 | 111 | 0.0 | 3.2 | 0.00 | 0.00 | 0.00 | 87 | 1016.9 |
| 20260906021118 | 21 | 37 | 0.0 | 1.6 | 0.00 | 0.00 | 0.00 | 86 | 1016.9 |
| 20260906020617 | 21 | 102 | 0.0 | 3.2 | 0.00 | 0.00 | 0.00 | 85 | 1016.8 |
| 20260906020113 | 21 | 116 | 3.2 | 4.8 | 0.00 | 0.00 | 0.00 | 85 | 1016.8 |
| 20260906015612 | 22 | 116 | 3.2 | 4.8 | 0.00 | 0.00 | 0.00 | 85 | 1016.7 |
| 20260906015111 | 22 | 106 | 0.0 | 3.2 | 0.00 | 0.00 | 0.00 | 85 | 1016.7 |
| 20260906014606 | 22 | 122 | 0.0 | 3.2 | 0.00 | 0.00 | 0.00 | 85 | 1016.7 |
| 20260906014102 | 22 | 103 | 0.0 | 1.6 | 0.00 | 0.00 | 0.00 | 85 | 1016.6 |
| 20260906013557 | 22 | 96 | 1.6 | 6.4 | 0.00 | 0.00 | 0.00 | 84 | 1016.3 |
| 20260906013052 | 22 | 117 | 3.2 | 3.2 | 0.00 | 0.00 | 0.00 | 84 | 1016.3 |
| 20260906012547 | 22 | 118 | 3.2 | 6.4 | 0.00 | 0.00 | 0.00 | 84 | 1016.1 |
| 20260906012047 | 22 | 114 | 4.8 | 6.4 | 0.00 | 0.00 | 0.00 | 83 | 1016.2 |
| 20260906011543 | 22 | 116 | 4.8 | 6.4 | 0.00 | 0.00 | 0.00 | 83 | 1016.0 |
| 20260906011043 | 22 | 109 | 4.8 | 4.8 | 0.00 | 0.00 | 0.00 | 82 | 1016.0 |
| 20260906010538 | 22 | 140 | 3.2 | 4.8 | 0.00 | 0.00 | 0.00 | 82 | 1015.8 |
| 20260906010034 | 23 | 131 | 3.2 | 4.8 | 0.00 | 0.00 | 0.00 | 82 | 1015.4 |
| 20260906005533 | 23 | 116 | 4.8 | 6.4 | 0.00 | 0.00 | 0.00 | 81 | 1015.5 |
| 20260906005032 | 23 | 132 | 3.2 | 9.7 | 0.00 | 0.00 | 0.00 | 80 | 1015.0 |
| 20260906004527 | 23 | 123 | 1.6 | 6.4 | 0.00 | 0.00 | 0.00 | 80 | 1015.1 |
| 20260906004022 | 23 | 113 | 4.8 | 4.8 | 0.00 | 0.00 | 0.00 | 79 | 1014.9 |
| 20260906003517 | 23 | 107 | 8.0 | 8.0 | 0.00 | 0.00 | 0.00 | 79 | 1014.8 |
| 20260906003013 | 24 | 121 | 4.8 | 6.4 | 0.00 | 0.00 | 0.00 | 78 | 1014.8 |
| 20260906002513 | 25 | 117 | 3.2 | 8.0 | 0.00 | 0.00 | 0.00 | 76 | 1014.9 |
| 20260906002008 | 25 | 121 | 3.2 | 8.0 | 0.00 | 0.00 | 0.00 | 75 | 1014.6 |
| 20260906001503 | 25 | 124 | 9.7 | 9.7 | 0.00 | 0.00 | 0.00 | 74 | 1014.6 |
| 20260906000952 | 26 | 121 | 3.2 | 6.4 | 0.00 | 0.00 | 0.00 | 73 | 1014.4 |
| 20260906000448 | 26 | 130 | 4.8 | 6.4 | 0.00 | 0.00 | 0.00 | 73 | 1014.6 |
| 20260905235948 | 26 | 135 | 4.8 | 6.4 | 0.00 | 0.00 | 0.00 | 72 | 1014.4 |
| 20260905235442 | 26 | 125 | 12.9 | 12.9 | 0.00 | 0.00 | 0.00 | 72 | 1014.4 |
| 20260905234937 | 26 | 167 | 4.8 | 14.5 | 0.00 | 0.00 | 0.00 | 71 | 1014.5 |
| 20260905234432 | 26 | 147 | 3.2 | 6.4 | 0.00 | 0.00 | 0.00 | 71 | 1014.2 |
| 20260905233927 | 26 | 119 | 6.4 | 8.0 | 0.00 | 0.00 | 0.00 | 71 | 1014.1 |
| 20260905233423 | 26 | 116 | 8.0 | 9.7 | 0.00 | 0.00 | 0.00 | 71 | 1014.0 |
| 20260905232921 | 27 | 126 | 3.2 | 9.7 | 0.00 | 0.00 | 0.00 | 71 | 1013.7 |
| 20260905232418 | 27 | 118 | 3.2 | 12.9 | 0.00 | 0.00 | 0.00 | 70 | 1013.6 |
| 20260905231913 | 27 | 116 | 6.4 | 6.4 | 0.00 | 0.00 | 0.00 | 71 | 1013.6 |
| 20260905231408 | 26 | 118 | 8.0 | 9.7 | 0.00 | 0.00 | 0.00 | 71 | 1013.8 |
| 20260905230904 | 27 | 124 | 9.7 | 9.7 | 0.00 | 0.00 | 0.00 | 72 | 1013.6 |
| 20260905230402 | 27 | 140 | 6.4 | 11.3 | 0.00 | 0.00 | 0.00 | 72 | 1013.4 |
| 20260905225856 | 26 | 136 | 4.8 | 11.3 | 0.00 | 0.00 | 0.00 | 74 | 1013.3 |
| 20260905225350 | 27 | 119 | 6.4 | 12.9 | 0.00 | 0.00 | 0.00 | 73 | 1013.5 |
| 20260905224845 | 27 | 128 | 9.7 | 9.7 | 0.00 | 0.00 | 0.00 | 73 | 1013.6 |
| 20260905224341 | 27 | 141 | 6.4 | 9.7 | 0.00 | 0.00 | 0.00 | 73 | 1013.6 |
| 20260905223835 | 27 | 110 | 9.7 | 20.9 | 0.00 | 0.00 | 0.00 | 73 | 1013.6 |
| 20260905223333 | 27 | 117 | 9.7 | 9.7 | 0.00 | 0.00 | 0.00 | 73 | 1013.8 |
| 20260905222828 | 27 | 117 | 11.3 | 17.7 | 0.00 | 0.00 | 0.00 | 73 | 1014.0 |
| 20260905222327 | 27 | 117 | 4.8 | 16.1 | 0.00 | 0.00 | 0.00 | 73 | 1014.0 |
| 20260905221823 | 27 | 126 | 4.8 | 9.7 | 0.00 | 0.00 | 0.00 | 73 | 1014.3 |
| 20260905221320 | 27 | 87 | 6.4 | 8.0 | 0.00 | 0.00 | 0.00 | 71 | 1014.4 |
| 20260905220815 | 27 | 87 | 6.4 | 14.5 | 0.00 | 0.00 | 0.00 | 71 | 1014.3 |
| 20260905220312 | 28 | 61 | 3.2 | 12.9 | 0.00 | 0.00 | 0.00 | 71 | 1014.3 |
| 20260905215810 | 28 | 116 | 3.2 | 16.1 | 0.00 | 0.00 | 0.00 | 70 | 1014.4 |
| 20260905215306 | 28 | 26 | 1.6 | 9.7 | 0.00 | 0.00 | 0.00 | 70 | 1014.5 |
| 20260905214802 | 28 | 62 | 4.8 | 8.0 | 0.00 | 0.00 | 0.00 | 66 | 1014.5 |
| 20260905214258 | 28 | 116 | 3.2 | 9.7 | 0.00 | 0.00 | 0.00 | 67 | 1014.5 |
| 20260905213753 | 28 | 49 | 3.2 | 6.4 | 0.00 | 0.00 | 0.00 | 66 | 1014.7 |
| 20260905213249 | 28 | 42 | 1.6 | 6.4 | 0.00 | 0.00 | 0.00 | 66 | 1014.9 |
| 20260905212744 | 29 | 44 | 6.4 | 6.4 | 0.00 | 0.00 | 0.00 | 67 | 1014.8 |
| 20260905212243 | 28 | 158 | 1.6 | 6.4 | 0.00 | 0.00 | 0.00 | 68 | 1014.9 |
| 20260905211743 | 28 | 113 | 3.2 | 12.9 | 0.00 | 0.00 | 0.00 | 66 | 1014.6 |
| 20260905211238 | 28 | 133 | 4.8 | 6.4 | 0.00 | 0.00 | 0.00 | 67 | 1015.0 |
| 20260905210735 | 28 | 51 | 4.8 | 6.4 | 0.00 | 0.00 | 0.00 | 66 | 1014.9 |
| 20260905210234 | 28 | 67 | 11.3 | 11.3 | 0.00 | 0.00 | 0.00 | 66 | 1014.9 |